Location: Unspecified
(42.3650°N, 71.1030°W)
Time: 15:25:32
(UTC+00:00)

S-56A Canister/Altair - Pass Details

Date: 28 June 2024
Orbit: 638 x 2487 km, 38.9° (Epoch: 20 July)

Event Time Altitude Azimuth Distance (km) Brightness Sun altitude
Rises 02:29:40 0° 267° (W) 4,101 11.7 -17.0°
Reaches altitude 10° 02:32:04 10° 266° (W) 3,342 11.1 -17.3°
Maximum altitude 02:40:47 74° 183° (S) 1,807 9.2 -18.1°
Drops below altitude 10° 02:53:50 10° 102° (ESE) 4,827 11.2 -19.3°
Sets 02:58:02 0° 101° (E) 5,993 11.7 -19.7°
